Location: Azenweiler
(47.8027°N, 9.4096°E)
Time: 00:49:53
(UTC+00:00)

Cosmos 1937 Rocket - Pass Details

Date: 10 December 2025
Orbit: 743 x 775 km, 74.0° (Epoch: 19 January)

Event Time Altitude Azimuth Distance (km) Brightness Sun altitude
Exits shadow 04:49:31 46° 268° (W) 996 3.6 -21.0°
Maximum altitude 04:49:52 47° 255° (WSW) 984 3.6 -20.9°
Drops below altitude 10° 04:54:45 10° 182° (S) 2,255 6.0 -20.1°
Sets 04:57:10 0° 177° (S) 3,178 6.9 -19.7°
